Find Starlink 36978

NORAD ID: 68960 Int'l Des: 2026-099 Owner: SPXS Country: US Constellation: starlink operational
LEOCIRCULAR

リアルタイム位置

3D地球を読み込み中...

Starlink 36978について

説明を読み込み中...

次回通過

Passes for default location (London). Set your location on the main map for personalized predictions.

高度履歴

Loading altitude history...

軌道要素

1 68960C 26099K 26125.84701389 -.01487900 00000+0 -25242-2 0 1259
2 68960 53.1615 7.1920 0000420 101.0099 194.4184 16.02661799 16
Epoch: May 5, 2026 • Age: 30 hours

現在のステータス

高度 270.8 km
速度 7.75 km/s
衛星直下点 4.23°N, 136.84°W
打ち上げ日 May 1, 2026
運用期間 4 days
タイプ internet

技術仕様

分類 Payload
質量 575.00 kg
乾燥質量 530.00 kg
総質量 575.00 kg
長さ 0.30 m
直径 4.10 m
スパン 29.00 m
形状 Box + pan
製造者 SPXS
バスタイプ Starlink V2MO
フェーズステータス In Orbit
所有者/国 SPXS/US

Most Searched